FW4445 Weather Reports


Display with metric or nautical units.
time (UTC)temp
F
wind
direction
speed
MPH
gust
MPH
rain 1hr
in
rain 24hr
in
rain mn
in
humidity
%
barometer
mb
20260502213521 58 0 0.0 0.0 0.00 0.00 0.00 68 1021.9
20260502213021 58 86 0.0 3.0 0.00 0.00 0.00 68 1021.9
20260502212520 58 85 1.0 5.0 0.00 0.00 0.00 68 1021.8
20260502212022 58 83 2.0 5.0 0.00 0.00 0.00 67 1021.9
20260502211021 59 87 1.0 5.0 0.00 0.00 0.00 67 1021.9
20260502210022 59 71 2.0 5.0 0.00 0.00 0.00 64 1022.0
20260502205522 59 75 2.0 5.0 0.00 0.00 0.00 64 1021.8
20260502205021 59 76 2.0 5.0 0.00 0.00 0.00 63 1022.0
20260502204520 59 79 2.0 5.0 0.00 0.00 0.00 63 1022.0
20260502204021 60 80 1.0 5.0 0.00 0.00 0.00 63 1022.0
20260502203521 60 75 2.0 8.0 0.00 0.00 0.00 63 1022.1
20260502200522 60 66 1.0 5.0 0.00 0.00 0.00 63 1022.0
20260502200021 60 0 0.0 0.0 0.00 0.00 0.00 64 1021.8
20260502195521 60 0 0.0 0.0 0.00 0.00 0.00 64 1021.9
20260502195021 60 0 0.0 0.0 0.00 0.00 0.00 63 1021.8
20260502194520 60 0 0.0 0.0 0.00 0.00 0.00 63 1021.9
20260502194021 60 0 0.0 0.0 0.00 0.00 0.00 63 1021.6
20260502193520 60 0 0.0 0.0 0.00 0.00 0.00 62 1021.6
20260502193020 60 0 0.0 0.0 0.00 0.00 0.00 62 1021.6
20260502192521 60 0 0.0 0.0 0.00 0.00 0.00 62 1021.7
20260502192021 61 0 0.0 0.0 0.00 0.00 0.00 62 1021.7
20260502191520 61 0 0.0 0.0 0.00 0.00 0.00 62 1021.5
20260502191020 61 0 0.0 0.0 0.00 0.00 0.00 60 1021.6
20260502190520 62 0 0.0 0.0 0.00 0.00 0.00 60 1021.6
20260502190021 62 0 0.0 0.0 0.00 0.00 0.00 58 1021.5
20260502185520 63 0 0.0 0.0 0.00 0.00 0.00 58 1021.4
20260502185020 63 0 0.0 0.0 0.00 0.00 0.00 56 1021.4
20260502184520 64 0 0.0 0.0 0.00 0.00 0.00 56 1021.3
20260502184021 64 208 0.0 3.0 0.00 0.00 0.00 56 1021.4
20260502183022 65 240 1.0 3.0 0.00 0.00 0.00 54 1021.2
20260502182520 65 244 1.0 3.0 0.00 0.00 0.00 53 1021.1
20260502182021 66 220 0.0 3.0 0.00 0.00 0.00 52 1021.2
20260502181521 66 229 0.0 3.0 0.00 0.00 0.00 50 1021.1
20260502181021 67 240 0.0 3.0 0.00 0.00 0.00 48 1021.1
20260502180521 67 248 1.0 3.0 0.00 0.00 0.00 47 1021.1
20260502164021 75 250 3.0 8.0 0.00 0.00 0.00 38 1021.1
20260502163521 75 254 3.0 8.0 0.00 0.00 0.00 37 1021.1
20260502163021 75 251 3.0 10.0 0.00 0.00 0.00 37 1021.1
20260502162021 75 248 3.0 9.0 0.00 0.00 0.00 37 1021.1
20260502161521 76 250 3.0 9.0 0.00 0.00 0.00 36 1021.4
20260502161021 76 253 3.0 6.0 0.00 0.00 0.00 36 1021.3
20260502160521 76 244 3.0 8.0 0.00 0.00 0.00 36 1021.3
20260502151520 76 245 5.0 13.0 0.00 0.00 0.00 35 1022.0
20260502151021 77 237 4.0 10.0 0.00 0.00 0.00 36 1021.8
20260502150521 77 226 4.0 10.0 0.00 0.00 0.00 35 1022.0
20260502130519 78 234 3.0 9.0 0.00 0.00 0.00 33 1023.2
20260502123520 76 249 4.0 11.0 0.00 0.00 0.00 33 1023.8
20260502123020 76 251 5.0 11.0 0.00 0.00 0.00 33 1023.9
20260502122519 76 245 5.0 11.0 0.00 0.00 0.00 34 1023.8
20260502122021 76 237 4.0 9.0 0.00 0.00 0.00 34 1023.8
20260502121519 76 242 4.0 9.0 0.00 0.00 0.00 33 1023.8
20260502121020 76 254 4.0 9.0 0.00 0.00 0.00 34 1024.0
20260502120520 76 253 4.0 11.0 0.00 0.00 0.00 33 1024.0
20260502115523 76 241 3.0 9.0 0.00 0.00 0.00 34 1024.1
20260502115023 76 232 3.0 10.0 0.00 0.00 0.00 35 1024.2
20260502114520 75 232 4.0 13.0 0.00 0.00 0.00 35 1024.3
20260502114022 75 240 5.0 13.0 0.00 0.00 0.00 35 1024.4
20260502113520 75 257 5.0 10.0 0.00 0.00 0.00 35 1024.5
20260502112520 74 239 4.0 10.0 0.00 0.00 0.00 35 1024.5
20260502112022 75 241 5.0 11.0 0.00 0.00 0.00 34 1024.8
20260502111521 74 241 4.0 11.0 0.00 0.00 0.00 35 1024.6
20260502111020 74 236 4.0 11.0 0.00 0.00 0.00 36 1024.7
20260502110021 74 260 3.0 9.0 0.00 0.00 0.00 35 1024.9
20260502105520 74 259 4.0 11.0 0.00 0.00 0.00 35 1025.0
20260502105021 73 251 5.0 11.0 0.00 0.00 0.00 36 1025.1
20260502104521 74 239 3.0 11.0 0.00 0.00 0.00 36 1025.0
20260502104020 73 213 3.0 9.0 0.00 0.00 0.00 35 1025.1
20260502103020 73 260 3.0 9.0 0.00 0.00 0.00 36 1025.4
20260502102520 73 269 3.0 10.0 0.00 0.00 0.00 37 1025.1
20260502102020 73 256 3.0 10.0 0.00 0.00 0.00 37 1025.4
20260502101520 73 233 3.0 9.0 0.00 0.00 0.00 36 1025.5
20260502100521 72 263 3.0 9.0 0.00 0.00 0.00 37 1025.7
20260502091519 71 240 2.0 6.0 0.00 0.00 0.00 39 1026.2
20260502091020 72 235 1.0 6.0 0.00 0.00 0.00 38 1026.1
20260502090520 72 195 1.0 5.0 0.00 0.00 0.00 40 1026.1
20260502071020 65 76 1.0 5.0 0.00 0.00 0.00 49 1027.0
20260502070020 64 86 1.0 3.0 0.00 0.00 0.00 50 1026.8
20260502065022 64 88 1.0 5.0 0.00 0.00 0.00 49 1027.1
20260502064520 63 79 1.0 3.0 0.00 0.00 0.00 51 1027.1
20260502064022 62 79 1.0 5.0 0.00 0.00 0.00 51 1027.2
20260502063520 61 79 1.0 5.0 0.00 0.00 0.00 52 1026.9
20260502063020 61 81 1.0 3.0 0.00 0.00 0.00 53 1027.1
20260502062520 60 80 1.0 3.0 0.00 0.00 0.00 54 1027.1
20260502062020 60 77 1.0 5.0 0.00 0.00 0.00 54 1027.3
20260502061522 59 73 2.0 5.0 0.00 0.00 0.00 56 1027.2
20260502061020 60 77 1.0 5.0 0.00 0.00 0.00 54 1027.4
20260502060519 60 86 0.0 3.0 0.00 0.00 0.00 53 1027.5
20260502060020 60 74 0.0 3.0 0.00 0.00 0.00 52 1027.3
20260502055520 60 48 0.0 3.0 0.00 0.00 0.00 52 1027.4
20260502055028 59 327 0.0 2.0 0.00 0.00 0.00 53 1027.2
20260502054520 61 0 0.0 0.0 0.00 0.00 0.00 52 1027.3
20260502054021 60 0 0.0 0.0 0.00 0.00 0.00 53 1027.4
20260502053520 58 0 0.0 0.0 0.00 0.00 0.00 54 1027.4
20260502053021 57 0 0.0 0.0 0.00 0.00 0.00 57 1027.4
20260502052519 56 0 0.0 0.0 0.00 0.00 0.00 58 1027.3
20260502052021 55 0 0.0 0.0 0.00 0.00 0.00 60 1027.3
20260502051520 55 0 0.0 0.0 0.00 0.00 0.00 60 1027.4
20260502051020 54 0 0.0 0.0 0.00 0.00 0.00 61 1027.5
20260502050521 53 0 0.0 0.0 0.00 0.00 0.00 62 1027.3
20260502050020 52 90 0.0 2.0 0.00 0.00 0.00 64 1027.2
20260502045519 52 90 0.0 2.0 0.00 0.00 0.00 65 1027.1
20260502045020 51 81 0.0 3.0 0.00 0.00 0.00 66 1027.4
20260502044519 51 81 0.0 3.0 0.00 0.00 0.00 66 1027.0
20260502044020 51 0 0.0 0.0 0.00 0.00 0.00 67 1027.2
20260502043519 50 0 0.0 0.0 0.00 0.00 0.00 68 1027.3
20260502043020 49 0 0.0 0.0 0.00 0.00 0.00 69 1027.1
20260502042522 49 0 0.0 0.0 0.00 0.00 0.00 69 1027.2
20260502042021 49 0 0.0 0.0 0.00 0.00 0.00 69 1027.1
20260502041520 49 0 0.0 0.0 0.00 0.00 0.00 69 1027.1
20260502041020 49 2 0.0 3.0 0.00 0.00 0.00 68 1027.3
20260502040520 49 345 1.0 5.0 0.00 0.00 0.00 68 1027.0
20260502040020 49 345 1.0 5.0 0.00 0.00 0.00 68 1027.1
20260502035519 49 349 1.0 3.0 0.00 0.00 0.00 68 1027.2
20260502035020 49 344 1.0 5.0 0.00 0.00 0.00 68 1027.0
20260502034520 49 347 1.0 5.0 0.00 0.00 0.00 68 1027.1
20260502034020 49 349 1.0 3.0 0.00 0.00 0.00 68 1027.1
20260502033519 49 334 0.0 3.0 0.00 0.00 0.00 68 1027.4
20260502033019 49 314 0.0 2.0 0.00 0.00 0.00 68 1027.2
20260502032519 49 0 0.0 0.0 0.00 0.00 0.00 68 1026.9
20260502032020 50 0 0.0 0.0 0.00 0.00 0.00 68 1027.0
20260502031021 50 343 0.0 5.0 0.00 0.00 0.00 67 1027.0
20260502030520 50 342 1.0 5.0 0.00 0.00 0.00 67 1027.1
20260502030020 50 337 0.0 5.0 0.00 0.00 0.00 67 1027.0
20260502025519 50 337 0.0 2.0 0.00 0.00 0.00 66 1027.1
20260502024520 50 0 0.0 0.0 0.00 0.00 0.00 66 1027.2
20260502024020 50 350 0.0 2.0 0.00 0.00 0.00 66 1027.2
20260502023519 50 350 0.0 2.0 0.00 0.00 0.00 66 1027.3
20260502023021 50 0 0.0 0.0 0.00 0.00 0.00 66 1027.2
20260502022519 50 1 0.0 3.0 0.00 0.00 0.00 66 1027.2
20260502022021 50 1 0.0 3.0 0.00 0.00 0.00 66 1027.2
20260502021520 50 0 0.0 0.0 0.00 0.00 0.00 66 1027.2
20260502021021 50 0 0.0 0.0 0.00 0.00 0.00 66 1027.3
20260502020519 50 0 0.0 0.0 0.00 0.00 0.00 67 1027.3
20260502020020 50 0 0.0 0.0 0.00 0.00 0.00 68 1027.6
20260502015519 50 0 0.0 0.0 0.00 0.00 0.00 68 1027.3
20260502015020 50 0 0.0 0.0 0.00 0.00 0.00 69 1027.3
20260502014520 50 0 0.0 0.0 0.00 0.00 0.00 69 1027.3
20260502014021 50 0 0.0 0.0 0.00 0.00 0.00 68 1027.4
20260502013519 51 0 0.0 0.0 0.00 0.00 0.00 68 1027.4
20260502012519 51 0 0.0 0.0 0.00 0.00 0.00 69 1027.4
20260502012020 51 0 0.0 0.0 0.00 0.00 0.00 69 1027.4
20260502011519 51 0 0.0 0.0 0.00 0.00 0.00 68 1027.4
20260502011032 51 72 0.0 3.0 0.00 0.00 0.00 69 1027.6
20260502010519 51 74 0.0 3.0 0.00 0.00 0.00 70 1027.4
20260502010019 51 75 0.0 3.0 0.00 0.00 0.00 70 1027.4
20260502005519 51 68 0.0 2.0 0.00 0.00 0.00 71 1027.4
20260502005020 51 0 0.0 0.0 0.00 0.00 0.00 71 1027.5
20260502003019 51 0 0.0 0.0 0.00 0.00 0.00 73 1027.7
20260502002519 51 0 0.0 0.0 0.00 0.00 0.00 74 1027.7
20260502002019 50 0 0.0 0.0 0.00 0.00 0.00 75 1027.6
20260502001520 50 0 0.0 0.0 0.00 0.00 0.00 75 1027.9
20260502001020 51 0 0.0 0.0 0.00 0.00 0.00 74 1027.8
20260502000019 51 0 0.0 0.0 0.00 0.00 0.00 74 1027.5
20260501235520 51 0 0.0 0.0 0.00 0.00 0.00 73 1027.4
20260501234519 51 0 0.0 0.0 0.00 0.00 0.00 72 1027.8
20260501234019 51 0 0.0 0.0 0.00 0.00 0.00 71 1027.5
20260501233519 51 0 0.0 0.0 0.00 0.00 0.00 70 1027.5
20260501233019 51 0 0.0 0.0 0.00 0.00 0.00 69 1027.5
20260501232519 51 0 0.0 0.0 0.00 0.00 0.00 68 1027.6
20260501232020 51 68 0.0 3.0 0.00 0.00 0.00 66 1027.5
20260501231520 51 68 0.0 3.0 0.00 0.00 0.00 65 1027.6
20260501231022 51 68 0.0 3.0 0.00 0.00 0.00 64 1027.6
20260501230520 52 68 0.0 3.0 0.00 0.00 0.00 63 1027.6
20260501230020 52 0 0.0 0.0 0.00 0.00 0.00 62 1027.6
20260501225519 52 73 1.0 5.0 0.00 0.00 0.00 61 1027.7
20260501225021 52 64 1.0 5.0 0.00 0.00 0.00 60 1027.7
20260501224519 53 61 1.0 3.0 0.00 0.00 0.00 59 1027.7
20260501223520 53 68 0.0 3.0 0.00 0.00 0.00 57 1027.4
20260501222520 54 69 0.0 3.0 0.00 0.00 0.00 55 1027.3
20260501222021 54 68 0.0 2.0 0.00 0.00 0.00 54 1027.3
20260501221519 54 0 0.0 0.0 0.00 0.00 0.00 53 1027.3
20260501221021 55 81 1.0 5.0 0.00 0.00 0.00 52 1027.3
20260501220519 55 81 1.0 5.0 0.00 0.00 0.00 51 1027.2
20260501220031 55 77 1.0 5.0 0.00 0.00 0.00 50 1027.5
20260501215520 55 69 0.0 3.0 0.00 0.00 0.00 50 1027.2
20260501215020 56 0 0.0 0.0 0.00 0.00 0.00 49 1027.3
20260501214519 56 0 0.0 0.0 0.00 0.00 0.00 49 1027.1